SCP
-0 0 -0 0 -0 -0 -0 -0 -0 -0 -0 -0 -0 -0 -0 -0 -0 0 0 -0 -0 -0 -0 -0 -0 -0 -0 -0 -0 -0 -0 -0 0 -0 -0 -0 -0 -0 -0 0 0 0 -0
0 0 -0 0 0 -0 -0 -0 -0 -0 -0 -0 -0 -0 -0 -0 -0 -0 0 -0 -0 -0 -0 -0 -0 -0 -0 -0 -0 -0 -0 -0 0 0 0 0 -0 -0 -0 0 0 0 0
0 -0 -0 -0 -0 -0 -0 -0 -0 -0 -0 -0 -0 -0 -0 -0 -0 -0 -0 -0 -0 -0 -0 -0 -0 -0 -0 -0 -0 -0 -0 -0 -0 0 0 0 0 -0 -0 -0 -0 0 0
-0 0 -0 -0 0 0 -0 -0 -0 -0 -0 -0 -0 -0 -0 -0 -0 -0 -0 -0 -0 -0 -0 -0 -0 -0 -0 -0 -0 -0 -0 -0 -0 0 0 0 0 -0 -0 -0 -0 -0 0
-0 -0 -0 -0 -0 -0 -0 -0 -0 -0 -0 -0 -0 -0 -0 -0 -0 -0 -0 -0 -0 -0 -0 -0 -0 -0 -0 -0 -0 -0 -0 -0 -0 -0 0 0 0 0 0 0 0 0 0
-0 -0 -0 -0 -0 -0 -0 -0 -0 -0 -0 -0 -0 -0 -0 -0 -0 -0 -0 -0 -0 -0 -0 -0 -0 -0 -0 -0 -0 -0 -0 -0 0 0 0 0 0 0 0 0 0 0 0
-0 -0 -0 -0 -0 -0 -0 -0 -0 -0 -0 -0 -0 -0 -0 -0 -0 -0 -0 -0 -0 -0 -0 -0 -0 -0 -0 -0 -0 -0 -0 -0 0 0 0 0 0 0 0 0 0 0 0
-0 -0 -0 -0 -0 -0 -0 -0 -0 -0 -0 -0 -0 -0 -0 -0 -0 -0 -0 -0 0 0 -0 -0 -0 -0 -0 -0 -0 -0 0 0 0 0 0 0 0 0 0 0 0 0 0
-0 -0 -0 -0 -0 -0 -0 -0 -0 -0 -0 -0 -0 -0 -0 -0 -0 -0 -0 -0 -0 -0 -0 -0 -0 -0 0 0 0 0 0 0 0 0 0 0 0 0 0 0 0 0 0
-0 -0 -0 -0 0 0 0 -0 -0 -0 -0 -0 -0 -0 -0 -0 -0 -0 -0 -0 -0 -0 -0 -0 -0 0 0 0 0 0 0 0 0 0 0 0 0 0 0 0 0 0 0
0 0 0 0 0 0 0 0 -0 -0 -0 -0 -0 -0 -0 0 -0 -0 -0 -0 -0 -0 -0 -0 0 0 0 0 0 0 0 0 0 0 0 0 0 0 0 0 0 0 0
0 0 0 0 0 0 0 0 0 0 0 0 0 0 0 0 0 0 0 -0 -0 0 -0 -0 0 0 0 0 0 0 0 0 0 0 0 0 0 0 0 0 0 0 0
0 0 0 0 0 0 0 0 0 0 0 0 0 0 0 0 0 0 0 0 0 0 0 0 0 0 0 0 0 0 0 0 0 0 0 0 0 0 0 0 0 0 0
0 0 0 0 0 0 0 0 0 0 0 0 0 0 0 0 0 0 0 0 0 0 0 0 0 0 0 0 0 0 0 0 0 0 0 0 0 0 0 0 0 0 0
0 0 0 0 0 0 0 0 0 0 0 0 0 0 0 0 0 0 0 0 0 0 0 0 0 0 0 0 0 0 0 0 0 0 0 0 0 0 0 0 0 0 0
0 0 0 0 0 0 0 0 0 0 0 0 0 0 0 0 0 0 0 0 0 0 0 0 0 0 0 0 0 0 0 0 0 0 0 0 0 0 0 0 0 0 0
0 0 0 0 0 0 0 0 0 0 0 0 0 0 0 0 0 0 0 0 0 0 0 0 0 0 0 0 0 0 0 0 0 0 0 0 0 0 0 0 0 0 0
0 0 0 0 0 0 0 0 0 0 0 0 0 0 0 0 0 0 0 0 0 0 0 0 0 0 0 0 0 0 0 0 0 0 0 0 0 0 0 0 0 0 0
0 0 0 0 0 0 0 0 0 0 0 0 0 0 0 0 0 0 0 0 0 0 0 0 0 0 0 0 0 0 0 0 0 0 0 0 0 0 0 0 0 0 0
0 0 0 0 0 0 0 0 0 0 0 0 0 0 0 0 0 0 0 0 0 0 0 0 0 0 0 0 0 0 0 0 0 0 0 0 0 0 0 0 0 0 0
0 0 0 0 0 0 0 0 0 0 0 0 0 0 0 0 0 0 0 0 0 0 0 0 0 0 0 0 0 0 0 0 0 0 0 0 0 0 0 0 0 0 0
0 0 0 0 0 0 0 0 0 0 0 0 0 0 0 0 0 0 0 0 0 0 0 0 0 0 0 0 0 0 0 0 0 0 0 0 0 0 0 0 0 0 0
0 0 0 0 0 0 0 0 0 0 0 0 0 0 0 0 0 0 0 0 0 0 0 0 0 0 0 0 0 0 0 0 0 0 0 0 0 0 0 0 0 0 0
0 0 0 0 0 0 0 0 0 0 0 0 0 0 0 0 0 0 0 0 0 0 0 0 0 0 0 0 0 0 0 0 0 0 0 0 0 0 0 0 0 0 0
0 0 0 0 0 0 0 0 0 0 0 0 0 0 0 0 0 0 0 0 0 0 0 0 0 0 0 0 0 0 0 0 0 0 0 0 0 0 0 0 -0 -0 -0
0 0 0 0 0 0 0 0 0 0 0 0 0 0 0 0 0 0 0 0 0 0 0 0 0 0 0 0 0 0 0 0 0 0 0 0 0 -0 -0 -0 -0 -0 -0
Wind_Speed_500mb
9 21 22 22 23 24 23 24 23 22 23 26 26 28 27 27 30 33 34 30 27 27 26 25 25 24 24 22 21 22 25 25 25 25 29 29 19 17 18 19 21 26 23
16 18 20 24 23 23 22 21 21 21 22 22 22 25 22 22 27 31 34 33 28 26 25 24 22 22 22 21 20 21 25 23 21 23 25 23 23 19 16 15 14 13 14
17 18 20 20 22 23 22 21 19 18 19 20 20 22 21 16 23 27 31 34 33 26 22 23 22 20 19 18 19 21 25 23 22 22 20 15 13 16 16 15 11 9 8
17 21 25 23 21 20 19 16 16 16 16 17 19 19 17 14 20 23 27 31 31 30 23 22 21 19 18 16 17 19 22 19 18 10 10 10 14 15 13 12 11 11 5
16 17 21 23 16 16 24 17 15 12 13 13 15 15 14 10 16 19 24 27 30 31 27 23 21 20 18 17 14 13 14 15 9 7 0 7 12 15 18 16 12 9 8
19 18 18 24 19 17 16 17 13 12 12 11 11 11 11 9 15 21 25 27 28 29 30 27 24 22 19 16 14 11 5 3 3 6 11 14 16 17 16 15 13 14 12
27 25 18 19 23 13 13 9 7 7 9 8 8 9 9 10 14 19 23 26 27 27 26 27 27 25 23 20 16 10 4 3 6 6 8 12 15 16 17 18 18 16 12
31 24 23 26 28 26 21 15 8 4 5 6 8 8 8 9 10 15 19 24 28 28 25 25 26 26 25 22 18 13 9 8 7 9 12 14 14 15 15 16 16 16 16
31 30 24 31 31 28 23 19 16 11 7 4 4 6 5 4 5 9 18 26 30 31 30 27 28 28 28 25 21 17 13 11 11 14 15 15 16 18 19 18 17 17 16
23 20 21 31 35 34 30 24 18 12 9 7 5 2 2 1 2 7 15 20 24 23 26 29 26 28 27 28 25 20 16 16 15 14 15 17 18 20 21 20 19 18 17
24 23 23 22 25 32 35 27 23 21 16 12 10 9 6 5 4 7 9 15 20 22 23 24 30 35 31 31 31 28 24 21 20 19 19 20 21 21 22 23 23 22 21
19 22 23 22 21 21 31 26 24 25 25 23 21 14 13 10 10 15 2 7 5 13 19 20 24 29 32 34 30 30 30 30 29 27 26 26 25 25 26 26 25 25 24
21 22 22 25 27 28 28 32 27 22 28 24 20 18 18 22 17 8 5 2 5 3 6 12 22 22 26 30 34 33 33 31 30 27 25 24 23 23 24 24 26 27 28
19 17 17 20 22 29 29 30 34 34 28 24 19 24 23 21 16 11 4 6 2 6 13 7 16 19 19 22 27 27 29 29 28 28 27 24 23 22 22 23 23 23 24
18 18 17 18 20 28 35 32 34 33 39 26 24 24 21 15 11 7 6 6 10 13 18 18 14 10 12 14 19 20 22 26 26 26 26 24 23 22 22 23 25 25 24
18 19 21 23 24 28 32 33 32 32 30 30 27 28 24 18 15 17 16 13 21 15 10 12 11 10 10 14 14 15 15 16 16 17 22 21 23 23 25 26 27 28 28
18 18 20 24 27 30 32 35 36 32 30 28 26 21 18 19 17 16 15 13 10 9 10 7 8 12 12 13 13 11 12 13 13 15 15 18 20 23 25 26 27 28 30
18 18 21 24 29 32 36 37 35 32 30 26 19 19 22 21 18 16 12 9 7 5 3 9 13 11 12 10 10 9 7 8 10 10 13 15 18 21 23 27 30 32 32
18 20 24 29 33 37 38 38 34 32 31 28 25 24 27 20 15 14 12 10 9 7 8 8 6 7 8 12 11 9 9 13 10 7 10 16 19 23 26 30 36 38 37
23 23 25 28 36 42 42 40 39 37 33 30 28 29 24 20 18 14 14 13 9 5 3 3 6 11 16 17 12 6 6 11 9 12 15 19 22 25 30 34 39 40 37
29 29 28 35 41 43 44 44 42 39 36 33 33 30 24 22 20 16 15 14 11 7 9 12 14 14 16 19 11 14 10 4 7 12 16 17 23 34 38 42 43 42 45
33 34 37 42 44 46 46 47 43 42 41 38 34 30 27 25 22 19 16 13 12 11 11 12 15 19 21 19 18 6 5 7 8 21 17 26 38 45 48 48 48 48 46
44 44 49 53 53 49 48 47 47 47 42 40 39 38 34 27 23 17 13 12 10 9 9 14 17 21 26 26 25 16 6 7 32 7 20 35 44 48 48 50 51 50 49
52 53 57 55 51 49 48 49 46 46 49 48 44 38 33 26 20 15 11 9 7 10 12 16 21 24 23 25 24 24 20 20 15 22 34 44 46 50 53 51 51 55 55
60 60 59 57 53 53 50 49 50 54 53 51 44 37 31 26 20 15 10 8 7 9 15 20 22 25 29 30 30 25 21 20 22 29 41 58 59 54 55 56 58 59 59
63 62 62 61 58 56 56 55 54 54 52 49 44 37 32 26 20 15 10 7 7 12 16 20 25 27 30 30 28 28 28 27 28 32 45 57 62 66 59 57 61 63 66
Wind_Direction_500mb
163 160 142 133 126 122 115 106 95 83 76 72 69 67 66 53 48 40 36 44 64 74 74 72 74 76 80 87 89 82 71 67 64 56 51 43 43 50 51 54 56 57 59
175 169 152 141 137 129 121 113 102 94 88 80 76 75 67 58 48 38 39 43 57 60 67 73 72 72 75 82 86 85 85 78 65 59 52 38 47 54 48 40 42 49 49
166 172 161 145 141 141 139 131 119 107 96 88 79 74 76 62 47 42 41 40 46 51 57 62 66 71 76 78 79 82 95 83 66 53 40 26 37 49 51 49 38 34 36
167 166 168 153 148 151 146 138 123 109 99 86 79 76 83 63 41 43 42 40 42 46 57 54 50 50 53 63 75 88 107 107 89 72 30 8 17 20 39 52 45 43 30
172 152 171 152 146 157 157 153 141 120 107 86 76 73 86 72 47 43 42 42 42 43 49 49 46 45 44 45 56 82 112 129 122 85 292 350 352 356 357 15 20 33 35
166 150 166 155 165 156 161 155 154 141 134 114 97 89 98 75 53 40 37 36 35 35 38 39 39 41 45 52 58 70 99 105 304 298 335 1 4 7 13 20 17 11 9
159 165 184 179 162 184 182 157 161 155 144 121 98 100 93 86 65 46 40 36 33 31 34 38 41 40 40 44 54 73 90 36 304 338 360 6 13 13 14 12 8 7 7
168 181 193 190 179 185 194 187 187 181 161 128 96 100 91 83 55 44 40 34 29 25 32 36 39 43 47 50 54 56 49 34 358 28 27 20 17 9 10 11 3 359 355
186 178 170 187 192 195 201 201 196 190 182 170 120 97 75 66 41 42 43 36 33 31 30 32 37 38 38 38 38 38 34 21 14 15 11 9 4 0 0 1 357 354 350
180 189 181 182 198 204 204 207 210 215 222 202 198 253 301 299 330 67 64 34 22 40 33 30 33 35 33 32 30 28 15 6 3 7 5 4 359 355 353 353 351 349 346
185 193 203 210 208 204 209 209 214 211 224 234 236 233 212 203 188 134 73 54 35 14 18 27 18 23 27 27 23 19 12 5 1 360 357 357 356 355 353 351 347 344 342
206 206 209 216 218 215 205 192 203 211 216 220 221 215 205 189 178 151 4 355 349 13 359 16 27 23 23 20 24 23 20 16 9 6 1 356 355 354 352 349 347 344 338
223 224 227 226 221 214 213 204 191 192 212 205 200 197 191 172 184 210 265 301 1 27 14 18 3 7 9 17 23 19 16 13 8 8 8 1 355 351 347 346 348 346 340
233 228 221 223 224 219 206 198 189 195 207 190 186 191 198 198 198 221 247 290 305 325 326 323 342 345 349 7 356 359 1 3 10 12 9 0 358 354 349 345 340 335 333
243 250 244 232 214 209 202 192 189 196 205 194 192 193 196 189 193 197 208 252 289 299 305 317 324 326 316 345 354 344 346 344 343 348 348 347 347 346 346 341 336 330 324
238 238 233 225 214 202 197 182 183 189 196 192 195 201 205 211 224 236 245 256 281 287 285 307 316 298 307 321 326 321 327 320 322 331 326 329 327 330 331 329 327 324 321
234 237 229 214 204 193 183 178 184 187 187 199 199 195 205 226 231 236 229 235 232 272 274 255 274 294 309 321 315 325 334 329 326 328 320 327 328 324 326 334 338 336 329
226 220 214 201 190 188 177 177 183 187 189 188 186 189 199 210 205 215 231 237 231 210 249 282 286 306 321 340 339 341 335 337 346 327 325 323 331 341 344 345 342 339 337
226 216 203 189 180 175 170 174 179 184 190 194 188 194 193 190 198 194 204 197 205 238 260 264 303 325 340 359 6 359 3 12 14 345 342 351 353 350 351 352 350 346 343
217 210 192 175 165 168 171 173 175 181 181 184 192 185 184 187 184 192 193 195 187 205 239 343 0 12 25 38 35 53 37 41 18 2 359 359 358 354 353 350 347 346 346
206 199 179 168 167 172 174 178 179 184 183 187 183 182 183 174 164 158 154 143 123 110 70 46 33 32 36 52 52 94 102 42 20 356 342 346 346 341 340 339 342 341 340
201 188 176 170 174 175 178 178 181 179 176 181 181 175 165 154 145 139 128 115 98 73 63 44 24 14 17 23 39 85 177 251 310 313 318 331 336 337 338 341 340 339 339
195 187 179 177 179 178 179 181 180 179 179 174 167 160 147 142 137 131 125 110 97 75 45 32 25 16 22 18 18 28 357 336 328 277 298 323 334 340 343 345 349 346 341
194 188 184 182 181 183 184 186 190 186 175 164 159 153 148 146 143 141 129 106 74 52 43 30 25 21 22 25 22 21 9 354 345 319 318 329 341 343 346 352 350 349 346
197 194 189 187 187 189 191 192 187 178 170 162 161 160 157 153 152 145 130 100 72 54 39 31 23 17 14 11 11 12 7 360 349 337 329 335 334 343 347 346 350 348 347
197 197 193 191 191 190 186 182 181 179 174 170 168 168 163 162 159 152 141 119 78 45 34 24 19 11 7 6 2 357 353 354 348 346 335 334 335 337 341 347 347 345 344
Wind_Speed_850mb
9 21 22 22 23 24 23 24 23 22 23 26 26 28 27 27 30 33 34 30 27 27 26 25 25 24 24 22 21 22 25 25 25 25 29 29 19 17 18 19 21 26 23
16 18 20 24 23 23 22 21 21 21 22 22 22 25 22 22 27 31 34 33 28 26 25 24 22 22 22 21 20 21 25 23 21 23 25 23 23 19 16 15 14 13 14
17 18 20 20 22 23 22 21 19 18 19 20 20 22 21 16 23 27 31 34 33 26 22 23 22 20 19 18 19 21 25 23 22 22 20 15 13 16 16 15 11 9 8
17 21 25 23 21 20 19 16 16 16 16 17 19 19 17 14 20 23 27 31 31 30 23 22 21 19 18 16 17 19 22 19 18 10 10 10 14 15 13 12 11 11 5
16 17 21 23 16 16 24 17 15 12 13 13 15 15 14 10 16 19 24 27 30 31 27 23 21 20 18 17 14 13 14 15 9 7 0 7 12 15 18 16 12 9 8
19 18 18 24 19 17 16 17 13 12 12 11 11 11 11 9 15 21 25 27 28 29 30 27 24 22 19 16 14 11 5 3 3 6 11 14 16 17 16 15 13 14 12
27 25 18 19 23 13 13 9 7 7 9 8 8 9 9 10 14 19 23 26 27 27 26 27 27 25 23 20 16 10 4 3 6 6 8 12 15 16 17 18 18 16 12
31 24 23 26 28 26 21 15 8 4 5 6 8 8 8 9 10 15 19 24 28 28 25 25 26 26 25 22 18 13 9 8 7 9 12 14 14 15 15 16 16 16 16
31 30 24 31 31 28 23 19 16 11 7 4 4 6 5 4 5 9 18 26 30 31 30 27 28 28 28 25 21 17 13 11 11 14 15 15 16 18 19 18 17 17 16
23 20 21 31 35 34 30 24 18 12 9 7 5 2 2 1 2 7 15 20 24 23 26 29 26 28 27 28 25 20 16 16 15 14 15 17 18 20 21 20 19 18 17
24 23 23 22 25 32 35 27 23 21 16 12 10 9 6 5 4 7 9 15 20 22 23 24 30 35 31 31 31 28 24 21 20 19 19 20 21 21 22 23 23 22 21
19 22 23 22 21 21 31 26 24 25 25 23 21 14 13 10 10 15 2 7 5 13 19 20 24 29 32 34 30 30 30 30 29 27 26 26 25 25 26 26 25 25 24
21 22 22 25 27 28 28 32 27 22 28 24 20 18 18 22 17 8 5 2 5 3 6 12 22 22 26 30 34 33 33 31 30 27 25 24 23 23 24 24 26 27 28
19 17 17 20 22 29 29 30 34 34 28 24 19 24 23 21 16 11 4 6 2 6 13 7 16 19 19 22 27 27 29 29 28 28 27 24 23 22 22 23 23 23 24
18 18 17 18 20 28 35 32 34 33 39 26 24 24 21 15 11 7 6 6 10 13 18 18 14 10 12 14 19 20 22 26 26 26 26 24 23 22 22 23 25 25 24
18 19 21 23 24 28 32 33 32 32 30 30 27 28 24 18 15 17 16 13 21 15 10 12 11 10 10 14 14 15 15 16 16 17 22 21 23 23 25 26 27 28 28
18 18 20 24 27 30 32 35 36 32 30 28 26 21 18 19 17 16 15 13 10 9 10 7 8 12 12 13 13 11 12 13 13 15 15 18 20 23 25 26 27 28 30
18 18 21 24 29 32 36 37 35 32 30 26 19 19 22 21 18 16 12 9 7 5 3 9 13 11 12 10 10 9 7 8 10 10 13 15 18 21 23 27 30 32 32
18 20 24 29 33 37 38 38 34 32 31 28 25 24 27 20 15 14 12 10 9 7 8 8 6 7 8 12 11 9 9 13 10 7 10 16 19 23 26 30 36 38 37
23 23 25 28 36 42 42 40 39 37 33 30 28 29 24 20 18 14 14 13 9 5 3 3 6 11 16 17 12 6 6 11 9 12 15 19 22 25 30 34 39 40 37
29 29 28 35 41 43 44 44 42 39 36 33 33 30 24 22 20 16 15 14 11 7 9 12 14 14 16 19 11 14 10 4 7 12 16 17 23 34 38 42 43 42 45
33 34 37 42 44 46 46 47 43 42 41 38 34 30 27 25 22 19 16 13 12 11 11 12 15 19 21 19 18 6 5 7 8 21 17 26 38 45 48 48 48 48 46
44 44 49 53 53 49 48 47 47 47 42 40 39 38 34 27 23 17 13 12 10 9 9 14 17 21 26 26 25 16 6 7 32 7 20 35 44 48 48 50 51 50 49
52 53 57 55 51 49 48 49 46 46 49 48 44 38 33 26 20 15 11 9 7 10 12 16 21 24 23 25 24 24 20 20 15 22 34 44 46 50 53 51 51 55 55
60 60 59 57 53 53 50 49 50 54 53 51 44 37 31 26 20 15 10 8 7 9 15 20 22 25 29 30 30 25 21 20 22 29 41 58 59 54 55 56 58 59 59
63 62 62 61 58 56 56 55 54 54 52 49 44 37 32 26 20 15 10 7 7 12 16 20 25 27 30 30 28 28 28 27 28 32 45 57 62 66 59 57 61 63 66
Wind_Direction_850mb
163 160 142 133 126 122 115 106 95 83 76 72 69 67 66 53 48 40 36 44 64 74 74 72 74 76 80 87 89 82 71 67 64 56 51 43 43 50 51 54 56 57 59
175 169 152 141 137 129 121 113 102 94 88 80 76 75 67 58 48 38 39 43 57 60 67 73 72 72 75 82 86 85 85 78 65 59 52 38 47 54 48 40 42 49 49
166 172 161 145 141 141 139 131 119 107 96 88 79 74 76 62 47 42 41 40 46 51 57 62 66 71 76 78 79 82 95 83 66 53 40 26 37 49 51 49 38 34 36
167 166 168 153 148 151 146 138 123 109 99 86 79 76 83 63 41 43 42 40 42 46 57 54 50 50 53 63 75 88 107 107 89 72 30 8 17 20 39 52 45 43 30
172 152 171 152 146 157 157 153 141 120 107 86 76 73 86 72 47 43 42 42 42 43 49 49 46 45 44 45 56 82 112 129 122 85 292 350 352 356 357 15 20 33 35
166 150 166 155 165 156 161 155 154 141 134 114 97 89 98 75 53 40 37 36 35 35 38 39 39 41 45 52 58 70 99 105 304 298 335 1 4 7 13 20 17 11 9
159 165 184 179 162 184 182 157 161 155 144 121 98 100 93 86 65 46 40 36 33 31 34 38 41 40 40 44 54 73 90 36 304 338 360 6 13 13 14 12 8 7 7
168 181 193 190 179 185 194 187 187 181 161 128 96 100 91 83 55 44 40 34 29 25 32 36 39 43 47 50 54 56 49 34 358 28 27 20 17 9 10 11 3 359 355
186 178 170 187 192 195 201 201 196 190 182 170 120 97 75 66 41 42 43 36 33 31 30 32 37 38 38 38 38 38 34 21 14 15 11 9 4 0 0 1 357 354 350
180 189 181 182 198 204 204 207 210 215 222 202 198 253 301 299 330 67 64 34 22 40 33 30 33 35 33 32 30 28 15 6 3 7 5 4 359 355 353 353 351 349 346
185 193 203 210 208 204 209 209 214 211 224 234 236 233 212 203 188 134 73 54 35 14 18 27 18 23 27 27 23 19 12 5 1 360 357 357 356 355 353 351 347 344 342
206 206 209 216 218 215 205 192 203 211 216 220 221 215 205 189 178 151 4 355 349 13 359 16 27 23 23 20 24 23 20 16 9 6 1 356 355 354 352 349 347 344 338
223 224 227 226 221 214 213 204 191 192 212 205 200 197 191 172 184 210 265 301 1 27 14 18 3 7 9 17 23 19 16 13 8 8 8 1 355 351 347 346 348 346 340
233 228 221 223 224 219 206 198 189 195 207 190 186 191 198 198 198 221 247 290 305 325 326 323 342 345 349 7 356 359 1 3 10 12 9 0 358 354 349 345 340 335 333
243 250 244 232 214 209 202 192 189 196 205 194 192 193 196 189 193 197 208 252 289 299 305 317 324 326 316 345 354 344 346 344 343 348 348 347 347 346 346 341 336 330 324
238 238 233 225 214 202 197 182 183 189 196 192 195 201 205 211 224 236 245 256 281 287 285 307 316 298 307 321 326 321 327 320 322 331 326 329 327 330 331 329 327 324 321
234 237 229 214 204 193 183 178 184 187 187 199 199 195 205 226 231 236 229 235 232 272 274 255 274 294 309 321 315 325 334 329 326 328 320 327 328 324 326 334 338 336 329
226 220 214 201 190 188 177 177 183 187 189 188 186 189 199 210 205 215 231 237 231 210 249 282 286 306 321 340 339 341 335 337 346 327 325 323 331 341 344 345 342 339 337
226 216 203 189 180 175 170 174 179 184 190 194 188 194 193 190 198 194 204 197 205 238 260 264 303 325 340 359 6 359 3 12 14 345 342 351 353 350 351 352 350 346 343
217 210 192 175 165 168 171 173 175 181 181 184 192 185 184 187 184 192 193 195 187 205 239 343 0 12 25 38 35 53 37 41 18 2 359 359 358 354 353 350 347 346 346
206 199 179 168 167 172 174 178 179 184 183 187 183 182 183 174 164 158 154 143 123 110 70 46 33 32 36 52 52 94 102 42 20 356 342 346 346 341 340 339 342 341 340
201 188 176 170 174 175 178 178 181 179 176 181 181 175 165 154 145 139 128 115 98 73 63 44 24 14 17 23 39 85 177 251 310 313 318 331 336 337 338 341 340 339 339
195 187 179 177 179 178 179 181 180 179 179 174 167 160 147 142 137 131 125 110 97 75 45 32 25 16 22 18 18 28 357 336 328 277 298 323 334 340 343 345 349 346 341
194 188 184 182 181 183 184 186 190 186 175 164 159 153 148 146 143 141 129 106 74 52 43 30 25 21 22 25 22 21 9 354 345 319 318 329 341 343 346 352 350 349 346
197 194 189 187 187 189 191 192 187 178 170 162 161 160 157 153 152 145 130 100 72 54 39 31 23 17 14 11 11 12 7 360 349 337 329 335 334 343 347 346 350 348 347
197 197 193 191 191 190 186 182 181 179 174 170 168 168 163 162 159 152 141 119 78 45 34 24 19 11 7 6 2 357 353 354 348 346 335 334 335 337 341 347 347 345 344